Flag for U.S.A. Weather past 2 weeks in Hudson, Wisconsin, U.S.A.

Now
68 °F

Sunny.


Feels Like: 68 °F
Forecast: 38 / 68 °F
Wind: 5 mph from North

Location: St. Paul Downtown Holman Field

Current Time: Apr 27, 2015 at 8:15:54 PM

Latest Report: Apr 27, 2015 at 6:53 PM


Visibility: 10 mi

Pressure: 30.13 "Hg

Humidity: 18%

Dew point: 23 °F

Location of HudsonLocation

Historic Weather in Hudson — Graph

°F

Hudson temperature yesterday

Maximum temperature yesterday: 63 °F (at 4:53 PM)
Minimum temperature yesterday: 37 °F (at 5:53 AM)
Average temperature yesterday: 51 °F

Past Weeks' High & Low Weather Summary

 TemperatureHumidityPressure
High75 °F (Apr 17, 4:53 PM)93% (Apr 19, 7:53 AM)30.28 "Hg (Apr 19, 7:53 AM)
Low28 °F (Apr 23, 6:53 AM)11% (Apr 23, 5:53 PM)29.50 "Hg (Apr 20, 5:53 AM)
Average51 °F48%29.95 "Hg
* Reported Apr 12 6:53 PM — Apr 27 6:53 PM, Hudson, Weather by CustomWeather, © 2015

Note: Actual official high and low records may vary slightly from our data, if they occured in-between our weather recording intervals... More about our weather records

Advertising

Hudson weather history for previous 24 hours

 ConditionsComfort  
Time TempWeatherWind HumidityBarometerVisibility
6:53 PM
Mon, Apr 27
68 °FSunny.5 mph18%30.13 "Hg10 mi
5:53 PM68 °FSunny.5 mph18%30.14 "Hg10 mi
4:53 PM68 °FSunny.8 mph18%30.16 "Hg10 mi
3:53 PM68 °FSunny.8 mph20%30.16 "Hg10 mi
2:53 PM67 °FSunny.8 mph20%30.18 "Hg10 mi
1:53 PM64 °FSunny.No wind23%30.20 "Hg10 mi
12:53 PM64 °FSunny.10 mph24%30.23 "Hg10 mi
11:53 AM61 °FSunny.8 mph27%30.24 "Hg10 mi
10:53 AM60 °FSunny.8 mph30%30.25 "Hg10 mi
9:53 AM56 °FSunny.3 mph34%30.25 "Hg10 mi
8:53 AM51 °FSunny.5 mph46%30.24 "Hg10 mi
7:53 AM45 °FSunny.5 mph60%30.23 "Hg10 mi
6:53 AM40 °FClear.3 mph65%30.21 "Hg10 mi
5:53 AM40 °FClear.No wind65%30.21 "Hg10 mi
4:53 AM42 °FClear.No wind57%30.21 "Hg10 mi
3:53 AM39 °FClear.5 mph62%30.21 "Hg10 mi
2:53 AM43 °FClear.No wind53%30.19 "Hg10 mi
1:53 AM44 °FClear.No wind53%30.18 "Hg10 mi
12:53 AM45 °FClear.No wind48%30.18 "Hg10 mi
11:53 PM
Sun, Apr 26
50 °FClear.6 mph38%30.17 "Hg10 mi
10:53 PM52 °FClear.6 mph32%30.16 "Hg10 mi
9:53 PM54 °FClear.9 mph33%30.13 "Hg10 mi
8:53 PM57 °FSunny.6 mph27%30.11 "Hg10 mi
Weather by CustomWeather, © 2015

See weather overviewHow to use our weather pages